DELTA 1 DEB, 21444

Orbit data source: Space-Track

DELTA 1 DEB, 21444 is space debris in SSO originally from a launch on Thu, 12 Jun 1975 UTC launched from the Air Force Western Test Range (AFWTR). Debris objects in space refer to the collection of defunct objects orbiting the Earth. Examples of debris include non-operational satellites, rocket bodies, and fragments generated from explosions, collisions, or faulty payload assembly.

Loading next visibility...
Identifier
21444, 1975-052EC
Orbit
SSO
Country
Flag of USUS
Related business
Manufacturer
Unknown
Mission
Spacecraft
Bus & Motor
Unknown
Mass
Unknown
Launch date (UTC)
1975-06-12 (50 years ago)
Launch vehicle
Unknown
Launch site
Air Force Western Test Range (AFWTR)
Object type
Payload
Rocket body
Debris
Shape & HBR
Unknown shape, 0.1 m
Radar Cross Section
Small (<0.1 m²)

Expand to show TLE details & history
Last TLE update: 20 hours ago

TLE from 20 hours ago
0 DELTA 1 DEB
1 21444U 75052EC  25287.30434885  .00000413  00000-0  13826-2 0  9993
2 21444  99.6866 223.7227 0264194 251.6104 265.5089 12.94703690625066
Epoch: 2025-10-14T07:18Z
TLE epoch observation values (Epoch: 2025-10-14T07:18:15.740Z)
Latitude
25.5238°
Longitude
-84.28601°
Altitude
1,306.981 km
Speed
7.195 km/s
True Right ascension
03h 13m 29s
True Declination
25° 23' 60"
Sunlit
Object was in full shadow at epoch
Visualization orbit readout
Latitude
Unknown
Longitude
Unknown
Altitude
Unknown
Speed
Unknown
Apparent Right ascension
Unknown
Apparent Declination
Unknown
Sunlit
N/A
Visualization observer readout
Local Sidereal Time
22:14:25
Azimuth
Unknown
Elevation
Unknown
Doppler factor
Unknown
Orbital elements
Apogee altitude
1,482.615 km
Perigee altitude
1,077.954 km
Semi-major axis
7,658.422 km
Eccentricity
0.02642
Inclination
99.6866°
RAAN
223.7227°
Arg. of periapsis
251.6104°
True anomaly
262.49992°
Mean anomaly
265.5089°
Eccentric anomaly
264.00346°
Mean motion
3.23843 °/min
Orbital period
111.17 mins
BSTAR
0.0013826
Loading maneuver chart data...
Computing Atmospheric mass density...
Loading historical data...
Loading historical data...
Loading historical data...
Loading historical data...
Loading historical data...
Loading historical data...
Loading historical data...

Documentation

Showing up to 5 results
|